This is the latest recevied weather packets stored in our database for station/object W5ALL-WX. If no packets are shown the sender has not sent any weather packets the latest 1 day(s).
| Time | Temp. | Humidity | Pressure | Rain* | Wind** | Luminosity | Snow |
|---|---|---|---|---|---|---|---|
| 1778003830 | 20° C | 33% | 1012.6 hPa | 0 mm | 1.79 m/s, 193° | - | - |
| 1778003530 | 19.44° C | 33% | 1012.6 hPa | 0 mm | 2.24 m/s, 191° | - | - |
| 1778003230 | 19.44° C | 32% | 1012.6 hPa | 0 mm | 4.02 m/s, 194° | - | - |
| 1778002930 | 19.44° C | 33% | 1012.5 hPa | 0 mm | 2.24 m/s, 208° | - | - |
| 1778002630 | 19.44° C | 33% | 1012.6 hPa | 0 mm | 3.13 m/s, 197° | - | - |
| 1778002330 | 19.44° C | 33% | 1012.6 hPa | 0 mm | 2.24 m/s, 219° | - | - |
| 1778002030 | 19.44° C | 34% | 1012.6 hPa | 0 mm | 3.58 m/s, 195° | - | - |
| 1778001730 | 20° C | 34% | 1012.6 hPa | 0 mm | 3.58 m/s, 200° | - | - |
| 1778001430 | 20° C | 34% | 1012.5 hPa | 0 mm | 4.47 m/s, 177° | - | - |
| 1778001130 | 20° C | 31% | 1012.5 hPa | 0 mm | 2.24 m/s, 228° | - | - |
| 1778000830 | 20° C | 31% | 1012.5 hPa | 0 mm | 3.13 m/s, 193° | - | - |
| 1778000530 | 20° C | 31% | 1012.5 hPa | 0 mm | 2.68 m/s, 219° | - | - |
| 1778000230 | 20° C | 31% | 1012.5 hPa | 0 mm | 1.34 m/s, 155° | - | - |
| 1777999930 | 20° C | 32% | 1012.5 hPa | 0 mm | 3.13 m/s, 174° | - | - |
| 1777999630 | 19.44° C | 32% | 1012.5 hPa | 0 mm | 3.13 m/s, 184° | - | - |
| 1777999330 | 20° C | 32% | 1012.5 hPa | 0 mm | 3.13 m/s, 190° | - | - |
| 1777999030 | 20° C | 33% | 1012.2 hPa | 0 mm | 0.89 m/s, 191° | - | - |
| 1777998730 | 20° C | 34% | 1012.2 hPa | 0 mm | 1.34 m/s, 211° | - | - |
| 1777998430 | 19.44° C | 34% | 1012.2 hPa | 0 mm | 1.34 m/s, 188° | - | - |
| 1777998130 | 19.44° C | 35% | 1012.4 hPa | 0 mm | 0 m/s | - | - |
| 1777997830 | 18.89° C | 35% | 1012.6 hPa | 0 mm | 0 m/s | - | - |
| 1777997530 | 18.89° C | 35% | 1012.7 hPa | 0 mm | 2.24 m/s, 228° | - | - |
| 1777997230 | 18.89° C | 35% | 1012.7 hPa | 0 mm | 0 m/s | - | - |
| 1777996930 | 18.89° C | 35% | 1012.9 hPa | 0 mm | 1.79 m/s, 231° | - | - |
| 1777996630 | 18.89° C | 37% | 1012.7 hPa | 0 mm | 1.34 m/s, 246° | - | - |
* Rain latest hour (hover to see other rain measurements)
** Current wind speed in m/s (hover to see current wind gust speed)